Temp
-15 -14 -14 -14 -14 -14 -15 -14 -14 -14 -13 -13 -13 -13 -13 -12 -11 -11 -11 -11 -11 -11 -11 -11 -10 -10 -10 -11 -11 -11 -11 -11 -10 -11 -11 -11 -11 -10 -11 -10 -10 -11 -12
-15 -15 -15 -15 -15 -15 -14 -14 -13 -13 -13 -13 -14 -14 -13 -13 -13 -12 -12 -12 -11 -11 -11 -11 -11 -11 -11 -11 -11 -11 -11 -11 -11 -10 -11 -11 -11 -11 -11 -10 -11 -12 -11
-15 -15 -14 -14 -14 -14 -13 -13 -13 -13 -13 -13 -14 -14 -14 -14 -14 -13 -12 -12 -12 -11 -11 -11 -11 -11 -11 -11 -12 -12 -12 -13 -12 -12 -12 -11 -11 -11 -11 -10 -10 -12 -12
-14 -14 -14 -13 -13 -13 -13 -13 -13 -13 -13 -14 -14 -14 -14 -14 -14 -13 -13 -13 -13 -12 -11 -11 -11 -12 -12 -13 -13 -13 -13 -14 -14 -13 -13 -12 -12 -12 -11 -11 -11 -11 -12
-13 -13 -13 -13 -13 -13 -13 -13 -14 -14 -14 -14 -14 -14 -14 -14 -14 -14 -14 -14 -13 -13 -12 -12 -12 -12 -12 -14 -14 -14 -14 -14 -15 -14 -14 -14 -13 -12 -12 -11 -12 -12 -11
-14 -14 -14 -14 -14 -14 -14 -14 -15 -15 -15 -14 -14 -14 -14 -14 -14 -14 -14 -13 -14 -14 -13 -13 -12 -12 -12 -13 -14 -14 -15 -15 -15 -15 -15 -14 -14 -14 -13 -12 -12 -11 -12
-15 -15 -15 -14 -14 -15 -15 -15 -15 -15 -15 -15 -14 -14 -14 -14 -15 -15 -14 -14 -13 -13 -13 -14 -13 -13 -13 -13 -14 -14 -14 -15 -15 -16 -15 -15 -14 -14 -14 -12 -13 -12 -12
-16 -15 -15 -16 -16 -15 -15 -15 -15 -15 -14 -15 -15 -15 -15 -15 -14 -14 -15 -14 -14 -14 -14 -14 -13 -14 -13 -14 -15 -15 -14 -15 -15 -16 -15 -15 -15 -15 -16 -13 -13 -13 -12
-17 -16 -16 -16 -15 -15 -15 -15 -15 -15 -15 -15 -15 -15 -15 -15 -15 -15 -15 -14 -14 -14 -15 -15 -14 -14 -14 -15 -15 -15 -15 -15 -15 -16 -16 -15 -14 -15 -15 -14 -13 -13 -13
-16 -16 -16 -16 -16 -15 -15 -15 -15 -15 -15 -15 -15 -15 -15 -15 -15 -16 -16 -15 -15 -15 -16 -16 -16 -16 -15 -16 -15 -15 -15 -16 -16 -16 -16 -15 -15 -15 -15 -14 -14 -13 -14
-16 -16 -15 -15 -15 -15 -15 -15 -15 -15 -15 -15 -15 -15 -15 -16 -17 -17 -17 -16 -16 -17 -17 -16 -16 -16 -16 -16 -15 -15 -14 -14 -15 -16 -16 -16 -15 -15 -15 -14 -14 -14 -14
-15 -15 -15 -15 -15 -15 -15 -15 -15 -15 -15 -15 -16 -16 -17 -17 -17 -17 -17 -17 -18 -18 -17 -17 -17 -17 -16 -16 -16 -15 -14 -15 -15 -16 -16 -17 -17 -16 -14 -15 -15 -14 -14
-15 -15 -15 -15 -15 -15 -15 -15 -15 -16 -16 -16 -16 -16 -17 -17 -17 -17 -18 -18 -18 -18 -17 -18 -17 -17 -16 -16 -16 -15 -16 -15 -15 -17 -17 -16 -16 -16 -16 -15 -14 -14 -14
-15 -15 -15 -15 -15 -15 -15 -16 -16 -16 -16 -16 -16 -17 -17 -17 -17 -18 -18 -19 -20 -19 -19 -18 -17 -17 -17 -16 -15 -16 -16 -16 -16 -16 -16 -16 -16 -15 -15 -15 -15 -15 -15
-15 -15 -15 -14 -15 -16 -16 -16 -16 -16 -16 -16 -17 -17 -17 -17 -18 -19 -19 -19 -20 -19 -18 -18 -17 -17 -16 -16 -16 -15 -16 -16 -16 -16 -16 -15 -15 -15 -15 -15 -15 -15 -15
-15 -15 -15 -15 -16 -16 -16 -16 -17 -17 -17 -17 -17 -18 -17 -18 -19 -19 -19 -19 -19 -18 -18 -18 -17 -17 -17 -17 -17 -16 -16 -16 -16 -16 -16 -16 -15 -15 -15 -15 -15 -15 -15
-15 -15 -16 -16 -16 -16 -16 -17 -18 -18 -18 -18 -18 -18 -18 -19 -19 -19 -20 -19 -18 -18 -18 -17 -17 -18 -18 -17 -17 -16 -16 -16 -16 -16 -16 -15 -15 -15 -15 -15 -15 -15 -15
-15 -15 -15 -16 -16 -16 -17 -17 -19 -19 -19 -19 -19 -19 -19 -19 -19 -20 -20 -19 -18 -18 -18 -17 -17 -18 -17 -18 -17 -17 -16 -17 -16 -16 -16 -16 -16 -15 -15 -16 -16 -16 -16
-15 -15 -15 -16 -16 -17 -17 -18 -19 -19 -19 -19 -19 -19 -19 -19 -19 -20 -19 -19 -18 -18 -17 -17 -18 -18 -18 -17 -16 -16 -16 -16 -16 -16 -16 -16 -15 -16 -16 -16 -16 -16 -16
-16 -16 -16 -16 -17 -17 -18 -18 -18 -18 -19 -19 -19 -19 -19 -19 -20 -19 -19 -19 -19 -18 -17 -17 -17 -18 -18 -18 -17 -16 -16 -16 -16 -16 -16 -16 -15 -16 -16 -16 -16 -16 -16
-16 -16 -16 -17 -17 -17 -17 -18 -18 -18 -19 -18 -18 -19 -19 -18 -18 -19 -18 -18 -17 -17 -17 -17 -17 -17 -17 -17 -18 -17 -17 -17 -17 -16 -16 -16 -16 -16 -16 -16 -16 -16 -16
-15 -16 -17 -17 -17 -17 -17 -18 -18 -18 -18 -18 -19 -19 -18 -17 -18 -18 -18 -17 -17 -17 -17 -17 -17 -18 -18 -17 -18 -18 -17 -17 -17 -16 -16 -16 -16 -17 -16 -16 -16 -16 -16
-15 -16 -17 -17 -17 -17 -17 -17 -18 -18 -18 -18 -18 -18 -17 -17 -18 -18 -18 -18 -17 -18 -17 -17 -18 -18 -17 -17 -17 -17 -17 -17 -17 -17 -17 -17 -17 -17 -17 -16 -16 -16 -16
-15 -16 -16 -17 -16 -17 -17 -17 -18 -18 -17 -18 -17 -17 -17 -18 -18 -18 -18 -17 -18 -18 -18 -18 -18 -17 -17 -17 -17 -17 -17 -17 -17 -17 -17 -17 -17 -17 -17 -17 -16 -16 -16
-16 -16 -16 -16 -17 -17 -18 -18 -18 -18 -17 -17 -17 -17 -17 -17 -17 -18 -18 -18 -17 -18 -18 -18 -18 -17 -17 -17 -17 -17 -17 -17 -18 -18 -18 -17 -17 -17 -17 -16 -16 -16 -16
-16 -16 -16 -17 -17 -18 -18 -18 -18 -18 -18 -18 -17 -17 -17 -17 -17 -18 -18 -18 -18 -18 -18 -18 -18 -17 -17 -17 -17 -17 -18 -18 -18 -18 -18 -17 -17 -17 -17 -17 -16 -16 -15
Height
5720 5718 5716 5714 5712 5709 5707 5706 5703 5701 5701 5700 5697 5692 5690 5688 5688 5688 5686 5684 5683 5683 5683 5685 5685 5685 5687 5689 5692 5695 5699 5701 5704 5710 5715 5719 5720 5720 5724 5727 5728 5726 5729
5705 5703 5701 5698 5696 5693 5690 5688 5686 5685 5684 5683 5680 5677 5674 5670 5669 5670 5668 5667 5666 5667 5667 5666 5668 5670 5671 5672 5674 5676 5679 5682 5688 5693 5698 5704 5709 5711 5715 5716 5715 5717 5720
5687 5685 5684 5681 5678 5677 5675 5672 5670 5669 5667 5665 5663 5660 5657 5654 5652 5651 5651 5650 5650 5650 5651 5652 5651 5652 5654 5655 5657 5658 5661 5664 5669 5674 5681 5685 5692 5695 5701 5703 5704 5705 5708
5672 5671 5669 5666 5663 5661 5658 5655 5652 5651 5649 5646 5645 5643 5642 5639 5637 5635 5633 5633 5632 5633 5633 5633 5634 5636 5637 5638 5640 5642 5645 5649 5652 5657 5662 5667 5673 5679 5684 5688 5692 5695 5698
5659 5657 5654 5651 5648 5644 5640 5637 5634 5633 5631 5628 5626 5624 5623 5621 5620 5618 5616 5614 5613 5613 5612 5614 5616 5617 5619 5621 5621 5624 5628 5632 5636 5641 5645 5649 5656 5661 5668 5672 5678 5682 5685
5643 5641 5638 5634 5630 5627 5623 5620 5617 5614 5611 5608 5607 5605 5604 5603 5603 5601 5599 5597 5597 5596 5595 5594 5597 5600 5603 5604 5603 5606 5611 5615 5620 5625 5631 5636 5641 5645 5650 5655 5661 5667 5672
5626 5623 5620 5617 5614 5611 5608 5604 5601 5598 5594 5592 5590 5587 5586 5584 5583 5582 5581 5580 5580 5580 5579 5579 5579 5582 5584 5586 5587 5589 5593 5598 5604 5610 5618 5625 5629 5632 5635 5641 5649 5656 5661
5610 5607 5603 5601 5598 5595 5591 5588 5585 5581 5579 5576 5573 5569 5566 5567 5565 5563 5562 5562 5562 5562 5562 5562 5562 5563 5565 5567 5569 5573 5576 5581 5588 5594 5604 5613 5616 5620 5625 5629 5637 5644 5650
5595 5593 5590 5586 5583 5579 5575 5571 5568 5565 5562 5558 5555 5553 5549 5547 5545 5544 5542 5542 5542 5543 5543 5542 5544 5545 5546 5547 5551 5555 5557 5564 5568 5578 5589 5599 5605 5610 5618 5622 5627 5634 5643
5582 5579 5576 5571 5567 5563 5559 5556 5552 5548 5544 5541 5538 5534 5531 5529 5526 5522 5520 5520 5522 5524 5524 5526 5526 5526 5529 5532 5534 5535 5536 5542 5547 5562 5574 5585 5594 5602 5609 5615 5619 5627 5636
5568 5564 5560 5555 5550 5546 5542 5539 5535 5532 5528 5523 5520 5515 5511 5507 5505 5503 5500 5500 5501 5503 5508 5511 5512 5513 5517 5522 5523 5519 5516 5521 5533 5548 5561 5572 5583 5591 5599 5608 5615 5622 5629
5554 5550 5546 5541 5536 5532 5527 5524 5519 5515 5510 5506 5501 5497 5492 5489 5487 5486 5483 5482 5484 5488 5494 5498 5503 5506 5509 5510 5512 5510 5505 5510 5521 5537 5552 5566 5577 5581 5590 5601 5612 5620 5624
5543 5539 5535 5530 5525 5518 5513 5508 5503 5498 5493 5489 5484 5480 5476 5473 5472 5470 5469 5469 5471 5475 5481 5489 5497 5500 5503 5507 5509 5514 5514 5520 5528 5541 5554 5566 5572 5578 5591 5600 5607 5613 5618
5534 5529 5524 5519 5512 5504 5497 5491 5486 5480 5475 5470 5466 5462 5460 5459 5458 5457 5458 5459 5460 5464 5474 5485 5491 5497 5501 5504 5510 5516 5522 5529 5538 5547 5556 5562 5569 5583 5589 5597 5603 5608 5613
5525 5520 5514 5506 5498 5489 5481 5474 5467 5461 5456 5453 5448 5446 5447 5447 5447 5446 5450 5454 5458 5463 5473 5482 5489 5495 5501 5508 5514 5519 5524 5533 5539 5549 5556 5567 5576 5581 5588 5594 5599 5604 5608
5517 5510 5502 5493 5483 5473 5465 5456 5448 5443 5439 5436 5434 5434 5436 5437 5437 5439 5443 5448 5455 5460 5471 5481 5488 5493 5499 5508 5518 5522 5526 5536 5544 5554 5562 5569 5575 5582 5587 5593 5598 5601 5603
5509 5501 5490 5479 5468 5458 5447 5438 5432 5426 5424 5423 5423 5425 5426 5428 5430 5434 5436 5443 5451 5460 5471 5482 5488 5494 5499 5508 5517 5522 5531 5540 5549 5556 5562 5568 5575 5582 5587 5591 5593 5596 5598
5501 5491 5479 5467 5456 5443 5432 5424 5418 5415 5414 5414 5415 5417 5419 5422 5426 5431 5436 5441 5450 5461 5473 5482 5489 5495 5500 5510 5518 5525 5534 5542 5549 5556 5562 5569 5575 5581 5583 5586 5590 5592 5595
5495 5484 5471 5459 5446 5434 5423 5414 5407 5404 5405 5408 5411 5413 5415 5418 5423 5428 5434 5441 5451 5462 5473 5484 5491 5498 5503 5511 5520 5530 5536 5543 5550 5557 5563 5569 5574 5578 5582 5585 5588 5589 5591
5490 5478 5464 5452 5439 5429 5419 5413 5407 5404 5405 5407 5409 5412 5414 5417 5421 5427 5437 5447 5456 5464 5476 5486 5494 5501 5506 5515 5522 5531 5538 5544 5550 5555 5561 5566 5572 5576 5578 5581 5583 5585 5586
5487 5474 5460 5447 5437 5430 5421 5415 5411 5409 5408 5408 5410 5412 5415 5420 5429 5440 5448 5454 5459 5468 5479 5488 5496 5503 5510 5519 5526 5532 5538 5544 5551 5555 5559 5564 5568 5573 5575 5577 5578 5581 5584
5483 5470 5457 5445 5438 5433 5426 5421 5416 5414 5412 5412 5412 5415 5419 5427 5438 5446 5452 5458 5466 5475 5484 5492 5500 5507 5514 5522 5528 5533 5537 5544 5550 5555 5560 5564 5568 5570 5573 5575 5576 5577 5580
5482 5469 5457 5447 5440 5435 5430 5425 5422 5421 5418 5416 5415 5418 5426 5436 5445 5452 5458 5465 5473 5481 5489 5496 5503 5510 5516 5522 5527 5533 5539 5543 5549 5554 5560 5564 5565 5567 5569 5571 5571 5572 5574
5483 5472 5460 5451 5443 5438 5434 5430 5428 5428 5426 5424 5424 5429 5438 5447 5453 5460 5466 5472 5478 5485 5492 5499 5506 5512 5518 5524 5528 5533 5539 5544 5548 5552 5556 5560 5560 5562 5564 5566 5566 5566 5569
5487 5477 5465 5455 5448 5444 5439 5436 5435 5435 5436 5437 5439 5444 5449 5455 5461 5466 5471 5477 5483 5490 5496 5503 5509 5515 5520 5524 5528 5533 5539 5544 5546 5549 5552 5556 5556 5558 5559 5561 5561 5561 5564
5493 5483 5473 5464 5457 5451 5445 5441 5440 5442 5444 5446 5450 5454 5458 5462 5467 5471 5476 5481 5487 5493 5499 5504 5509 5514 5520 5524 5529 5534 5539 5542 5544 5545 5548 5550 5552 5554 5555 5556 5556 5557 5559
Wind_Speed
46 47 48 51 55 60 61 59 61 62 63 64 68 70 71 70 68 66 65 65 64 65 64 64 65 65 65 64 62 60 58 57 57 51 47 47 47 46 38 34 38 31 35
49 51 53 58 61 63 64 67 69 68 66 62 63 63 65 69 69 68 68 68 67 66 67 68 67 67 67 66 64 63 61 60 58 56 54 50 50 46 46 46 40 39 36
55 56 59 62 65 67 69 69 69 68 65 60 59 59 61 62 65 67 68 69 68 67 67 67 67 67 65 64 63 61 59 57 56 56 53 53 51 53 47 43 39 42 31
59 61 63 65 67 66 68 69 68 66 63 61 60 59 58 58 61 64 66 65 66 67 66 65 64 64 63 63 61 60 57 54 53 51 49 49 53 53 50 50 44 43 38
59 60 62 64 66 67 68 69 68 64 62 63 62 61 59 59 59 60 63 65 66 68 69 71 67 61 58 59 62 59 58 56 54 50 45 44 48 53 47 52 53 47 49
62 64 65 67 68 69 69 68 65 64 65 65 65 63 61 59 56 56 59 62 62 63 65 66 60 55 55 55 57 59 60 60 56 49 42 36 50 51 52 45 47 48 56
65 65 66 67 68 67 65 64 64 65 67 67 65 63 60 58 57 53 50 51 52 52 56 61 59 52 54 55 54 56 58 56 56 52 44 40 40 46 44 52 49 42 41
59 61 63 64 64 62 60 61 63 64 63 61 61 62 62 55 52 53 54 54 54 55 57 59 59 60 58 58 58 58 59 57 53 54 44 43 38 36 41 45 45 50 47
54 57 58 57 57 59 60 60 60 60 59 60 57 54 55 56 59 59 59 59 60 59 56 58 60 65 62 59 59 57 57 60 55 53 47 44 43 36 35 41 44 50 47
54 54 55 57 56 55 56 56 55 57 54 54 56 57 60 62 63 64 64 60 57 53 49 45 45 50 55 55 52 44 40 38 45 48 45 41 41 42 44 46 43 41 38
48 45 45 48 50 51 52 54 51 53 53 57 59 62 61 58 55 54 53 55 51 44 41 40 40 39 41 39 34 29 30 43 51 52 47 48 46 50 51 46 39 38 36
40 41 43 46 48 49 50 52 52 54 56 56 54 55 52 49 49 49 48 40 37 36 36 36 29 22 16 18 18 7 11 27 34 52 50 42 43 51 45 40 37 37 36
36 34 36 41 46 50 53 53 54 54 54 52 53 51 49 47 43 41 36 33 31 31 31 23 22 19 30 24 25 18 30 31 41 32 34 40 41 32 31 31 27 25 24
32 37 41 44 47 48 50 54 55 55 57 51 53 49 42 38 38 33 33 21 18 24 26 34 27 31 30 28 29 30 33 33 31 39 36 33 32 30 25 22 22 23 23
33 34 36 41 46 50 52 53 54 56 51 50 47 38 32 33 28 26 19 19 18 25 36 32 34 32 31 34 34 33 36 35 35 35 35 32 31 28 24 21 19 19 20
29 37 41 45 48 48 49 51 51 49 48 41 34 25 26 23 20 19 21 24 30 44 42 31 26 26 34 27 27 27 31 35 37 38 35 32 26 22 19 18 19 18 17
34 40 47 51 45 49 53 49 42 36 32 28 21 18 18 17 17 16 20 35 51 48 31 35 26 25 30 27 30 32 35 36 36 34 30 26 23 19 17 16 14 15 14
38 46 52 45 50 49 43 40 34 28 27 19 13 13 14 16 18 22 23 44 54 42 42 31 26 32 33 35 34 35 34 34 33 29 26 25 23 17 11 10 11 12 14
37 46 48 45 48 39 36 31 23 18 11 9 11 12 14 12 18 25 35 53 53 37 43 33 30 35 38 38 36 33 36 35 32 27 25 23 21 15 11 8 9 11 12
39 48 46 46 37 33 27 21 13 6 2 8 6 12 12 13 19 33 44 53 29 32 40 35 31 31 35 35 36 36 33 33 31 28 24 20 21 17 13 10 9 10 11
42 43 44 40 28 27 21 15 12 7 3 5 10 11 11 21 43 43 40 41 44 45 35 33 30 28 30 30 27 32 32 28 25 23 23 22 21 17 13 12 11 10 12
42 43 42 33 23 21 17 14 11 9 9 7 6 10 22 41 43 35 34 37 44 40 37 32 29 27 27 27 26 28 27 25 24 22 22 21 17 11 10 10 12 12 12
43 43 37 29 25 20 17 15 11 10 7 4 6 19 39 47 39 32 33 32 35 29 35 31 32 29 24 25 25 26 27 25 22 20 18 15 11 9 10 11 14 13 15
40 42 36 29 25 23 18 17 12 12 11 10 16 30 43 37 34 31 29 30 33 29 32 30 32 28 27 26 24 22 21 20 18 15 13 11 9 13 17 16 17 18 20
37 40 40 34 27 23 19 16 12 14 14 17 27 29 31 34 34 31 27 29 31 30 28 29 30 31 28 26 24 22 20 21 18 15 15 14 13 11 14 17 18 21 21
35 38 41 40 37 30 22 17 14 14 16 19 24 22 24 25 28 30 30 27 26 28 30 26 23 26 28 27 24 22 22 18 14 12 13 12 13 15 16 19 21 21 12
Wind_Direction
269 270 272 272 273 273 277 278 280 282 286 285 285 285 285 283 281 279 278 275 275 275 275 276 277 278 278 278 278 278 277 275 273 269 262 261 263 263 263 265 257 268 271
269 267 268 270 273 277 282 285 285 285 287 287 285 284 282 282 280 277 276 275 274 274 274 275 276 276 277 280 281 279 276 274 271 269 265 261 258 258 255 264 252 257 264
272 273 274 277 279 279 280 280 281 283 285 285 284 284 281 278 278 278 276 275 274 274 274 274 277 279 278 276 277 278 278 276 273 271 263 257 255 254 249 249 254 252 244
273 274 275 276 278 280 282 283 284 284 285 287 285 282 277 274 275 276 277 277 276 276 277 276 273 271 274 276 275 275 274 274 273 270 266 257 250 248 248 245 252 247 239
278 279 279 280 282 283 284 286 287 288 287 286 284 282 280 276 274 272 271 272 274 275 276 276 276 272 270 266 268 269 270 270 270 270 266 260 245 242 242 242 243 245 242
275 277 279 280 281 283 284 286 287 288 287 286 284 283 281 278 275 272 270 268 268 270 273 275 276 271 267 265 261 263 264 265 264 266 253 246 242 239 232 234 240 253 239
279 279 280 280 280 282 284 284 284 283 282 282 284 283 282 282 281 277 273 272 273 271 270 270 273 272 266 265 262 260 260 262 260 256 248 244 248 240 233 235 235 231 229
278 278 278 279 281 282 280 280 279 279 282 284 284 284 283 281 277 278 277 273 271 268 265 263 265 268 265 261 260 260 259 258 259 249 242 240 248 257 258 220 224 224 225
280 281 283 281 279 280 280 280 282 283 282 280 281 284 283 284 283 281 278 276 272 271 270 267 267 263 265 260 261 263 261 262 254 238 233 233 240 259 241 222 230 229 225
280 280 281 279 278 278 280 280 280 281 283 286 287 288 288 284 281 279 279 277 273 270 263 264 268 261 258 259 265 269 252 245 230 225 228 230 232 245 222 228 217 205 207
283 283 281 280 280 280 282 283 284 288 290 292 288 287 288 286 281 278 278 280 275 263 259 265 262 264 254 263 262 265 251 224 228 220 220 221 241 228 221 217 210 206 208
286 287 286 286 287 286 285 287 289 291 290 290 292 290 287 286 283 282 285 278 266 258 255 259 256 247 250 242 228 217 189 192 206 212 215 224 223 217 195 185 194 204 212
290 292 292 294 295 293 292 290 289 291 293 292 291 292 283 286 283 284 280 273 264 251 245 221 191 206 192 183 185 184 148 157 168 178 190 195 169 156 179 183 190 202 219
300 299 297 299 298 295 292 290 291 292 295 291 293 290 283 280 282 275 278 262 234 211 189 172 181 165 167 182 187 176 171 176 181 186 174 153 153 171 171 182 200 217 229
301 306 309 305 301 298 296 294 292 293 293 293 292 284 276 278 273 267 238 227 211 181 166 171 188 176 171 163 163 166 171 172 169 156 150 158 163 167 177 193 208 221 229
317 315 312 309 309 303 300 299 299 296 295 291 286 273 274 269 250 238 229 209 184 168 172 172 175 168 167 159 169 160 152 152 156 158 160 161 166 178 192 206 217 221 222
317 320 320 320 317 312 307 305 301 298 292 285 274 263 263 239 224 215 217 187 176 167 174 177 175 171 167 165 169 155 156 160 161 159 159 167 172 171 180 193 204 215 212
330 328 325 324 321 317 313 311 304 291 285 281 254 248 228 213 211 191 188 184 175 167 169 169 174 163 159 162 171 170 165 161 160 162 171 177 177 182 180 186 197 209 216
336 335 332 326 327 327 326 324 315 301 277 245 215 218 204 214 198 192 185 179 170 170 171 171 161 162 161 165 169 167 166 167 164 171 182 180 181 190 194 196 203 209 223
337 338 337 336 337 341 343 350 355 16 160 176 217 191 190 195 173 160 172 173 177 181 166 170 167 168 170 169 170 175 174 172 175 174 180 180 191 205 205 212 214 224 235
342 343 341 344 351 358 11 25 54 73 83 149 161 173 174 169 154 157 158 172 162 173 169 174 172 171 170 173 179 175 176 180 181 180 184 190 205 210 210 212 225 241 252
353 353 352 354 2 9 16 23 27 67 93 130 162 175 165 170 166 153 151 150 166 171 177 179 178 170 165 172 179 184 185 185 183 192 201 209 213 214 222 236 245 253 260
1 2 5 8 8 13 20 25 40 71 76 49 129 151 162 163 159 151 149 152 169 171 180 181 188 178 182 188 189 194 194 194 198 203 209 210 213 232 250 259 259 258 263
5 11 13 14 16 19 31 40 72 73 74 90 127 150 161 166 169 166 166 165 166 169 181 180 177 179 182 193 200 205 203 202 209 215 231 246 271 270 267 263 259 258 266
12 19 23 22 27 31 34 48 77 83 99 122 142 150 162 166 171 170 162 168 168 165 170 176 185 189 198 199 209 215 220 227 227 232 248 267 260 245 249 253 259 265 276
23 26 30 35 38 35 35 49 94 105 104 127 159 159 164 172 180 186 191 190 186 179 179 181 187 195 195 202 209 216 219 226 244 253 252 223 229 240 244 252 261 274 233